Showing default

QIANFAN-37, 62238

Orbit data source: Space-Track

QIANFAN-37, 62238 is a Chinese payload satellite in LEO that was launched on Thu, 05 Dec 2024 UTC via a CHANG ZHENG 6A launch vehicle from the Taiyaun Space Center, China (TSC). Payloads include a variety of satellites, spacecraft, and rockets equipped with specific instruments for various scientific and technological missions. These include communications satellites like Starlink; space stations such as the ISS; scientific satellites like the Hubble; Earth observation satellites from companies like Planet Labs, Umbra, and HawkEye 360; GPS; miniature CubeSats for education and research; and military/defense satellites.

Loading next visibility...
QIANFAN-37 details
Identifier
62238, 2024-232B
Orbit
LEO
Last TLE update1 day ago
Origin
Flag of CNYUANX (CN / PRC)
ManufacturerSECM
MissionOperational Commercial Communications
Bus & MotorQIANFAN, Unknown motor
Mass300 kg wet, ~300 kg dry
Launch date (UTC)
2024-12-05 (2 months ago)
Launch vehicle
CHANG ZHENG 6A
Launch site
Taiyaun Space Center, China (TSC)
Object type
Payload
Rocket body
Debris
Shape & HBRBox + 1 Pan, 10 m
Radar Cross Section13.200 m², Large (>1 m²)

Expand to show TLE details & history

TLE from 1 day ago
0 QIANFAN-37
1 62238U 24232B   25035.21923159  .00000655  00000-0  34563-3 0  9991
2 62238  88.9883  73.1557 0017691  28.6673 331.5482 14.12663061 56996
Epoch: 2025-02-04T05:15Z
Definitive object data (Epoch: 2025-02-04T05:15:41.609Z)
Latitude0.00003°
Longitude-140.39533°
Altitude842.075 km
Speed7.437 km/s
True Right ascension04h 52m 37s
True Declination0° 00' 00"
Sunlit
Object was in daylight at TLE epoch
Visualization TLE readout
Latitude35.89281°
Longitude-139.78818°
Altitude842.645 km
Speed7.441 km/s
Apparent Right ascension01h 31m 04s
Apparent Declination1° 28' 35"
Sunlit
Object is in full shadow
Visualization observer readout
Local Sidereal Time08:58:01
Azimuth285.489° WNW
Elevation-15.511°
Doppler factor1
Orbital elements
Apogee altitude860.017 km
Perigee altitude834.452 km
Semi-major axis7,225.372 km
Eccentricity0.0017691
Inclination88.9883°
RAAN73.1557°
Arg. of periapsis28.6673°
True anomaly331.45143°
Mean anomaly331.5482°
Eccentric anomaly331.49983°
Mean motion3.53389 °/min
BSTAR0.00034563
Orbital period101.87 mins
Loading maneuver chart data...
Loading historical data...
Loading historical data...
Loading historical data...
Loading historical data...
Loading historical data...
Loading historical data...
Loading historical data...

QIANFAN-37 Visibility forecast

Observer location: undefined°, undefined

Span
Click to sort rows by Start time (UTC) header in descending order
Start Az.
Max El. time (UTC)
Max El. Az.
Max El.
End time (UTC)
End Az.
9 mins2025-02-05 14:08:45.884Z16.663° NNE2025-02-05 14:12:45.884Z71.497° E35.499°2025-02-05 14:17:45.884Z156.82° SSE
7 mins2025-02-05 15:51:45.884Z321.888° NNW2025-02-05 15:54:45.884Z283.135° WNW20.174°2025-02-05 15:58:45.884Z236.101° WSW
6 mins2025-02-06 01:36:45.884Z111.948° ESE2025-02-06 01:39:45.884Z71.363° E19.509°2025-02-06 01:42:45.884Z34.902° NE
9 mins2025-02-06 03:16:45.884Z204.418° SW2025-02-06 03:20:45.884Z267.598° W35.92°2025-02-06 03:25:45.884Z345.229° N
|